{"data":{"norad_id":53136,"epoch":"2026-05-24T20:30:22.542048Z","epoch_age_seconds":83484,"freshness":"FRESH","line1":"1 53136U 22083E   26144.85442757  .00000382  00000+0  42073-4 0  9994","line2":"2 53136  53.2143 192.2046 0001110  79.9092 280.2025 15.08839249213702","mean_motion":15.08839249,"eccentricity":0.000111,"inclination_deg":53.2143,"raan_deg":192.2046,"arg_perigee_deg":79.9092,"mean_anomaly_deg":280.2025,"bstar":4.2073e-5,"rev_number":21370,"period_min":95.437602180244,"perigee_km":538.97779949364,"apogee_km":540.51356944959,"semimajor_km":6917.8826844716,"source":"CELESTRAK","updated_at":"2026-05-25T13:38:17.316200Z"}}